This is the latest recevied weather packets stored in our database for station/object OM1PU-6. If no packets are shown the sender has not sent any weather packets the latest 10 day(s).
| Time | Temp. | Humidity | Pressure | Rain* | Wind** | Luminosity | Snow |
|---|---|---|---|---|---|---|---|
| 1777490294 | 8.89° C | 37% | 1036.6 hPa | 0 mm | - | - | - |
| 1777489394 | 8.89° C | 37% | 1036.3 hPa | 0 mm | - | - | - |
| 1777488494 | 9.44° C | 38% | 1036.2 hPa | 0 mm | - | - | - |
| 1777487594 | 9.44° C | 39% | 1036 hPa | 0 mm | - | - | - |
| 1777486694 | 10° C | 40% | 1035.4 hPa | 0 mm | - | - | - |
| 1777485794 | 10.56° C | 39% | 1035.5 hPa | 0 mm | - | - | - |
| 1777484894 | 11.11° C | 39% | 1035.1 hPa | 0 mm | - | - | - |
| 1777483993 | 11.67° C | 38% | 1035 hPa | 0 mm | - | - | - |
| 1777483094 | 12.22° C | 38% | 1034.8 hPa | 0 mm | - | - | - |
| 1777482193 | 13.33° C | 36% | 1034.7 hPa | 0 mm | - | - | - |
| 1777481293 | 13.89° C | 37% | 1034.5 hPa | 0 mm | - | - | - |
| 1777480393 | 14.44° C | 36% | 1034.6 hPa | 0 mm | - | - | - |
| 1777479494 | 14.44° C | 37% | 1034.3 hPa | 0 mm | - | - | - |
| 1777478593 | 15° C | 35% | 1034.3 hPa | 0 mm | - | - | - |
| 1777477694 | 15.56° C | 34% | 1034.1 hPa | 0 mm | - | - | - |
| 1777476793 | 16.11° C | 34% | 1033.9 hPa | 0 mm | - | - | - |
| 1777475894 | 16.11° C | 34% | 1033.8 hPa | 0 mm | - | - | - |
| 1777474994 | 16.67° C | 32% | 1033.8 hPa | 0 mm | - | - | - |
| 1777474094 | 17.78° C | 30% | 1033.9 hPa | 0 mm | - | - | - |
| 1777473194 | 17.22° C | 31% | 1033.6 hPa | 0 mm | - | - | - |
| 1777472293 | 17.78° C | 30% | 1033.3 hPa | 0 mm | - | - | - |
| 1777471394 | 17.78° C | 30% | 1033.3 hPa | 0 mm | - | - | - |
| 1777470494 | 18.33° C | 29% | 1033.2 hPa | 0 mm | - | - | - |
| 1777469594 | 18.33° C | 30% | 1033.4 hPa | 0 mm | - | - | - |
| 1777468693 | 18.89° C | 28% | 1033.2 hPa | 0 mm | - | - | - |
* Rain latest 24 hours (hover to see other rain measurements)
** Current wind speed in m/s (hover to see current wind gust speed)